Time,TemperatureF,DewpointF,PressureIn,WindDirection,WindDirectionDegrees,WindSpeedMPH,WindSpeedGustMPH,Humidity,HourlyPrecipIn,Conditions,Clouds,dailyrainin,SoftwareType,DateUTC
2013-09-07 00:02:00,53.2,49.0,30.04,East,81,0.0,-999.0,85,-99.99,,,0.00,weatherlink.com 1.10,2013-09-07 04:02:00,
2013-09-07 00:17:00,53.2,49.0,30.05,East,83,1.0,-999.0,85,-99.99,,,0.00,weatherlink.com 1.10,2013-09-07 04:17:00,
2013-09-07 00:32:00,53.4,49.0,30.05,East,83,0.0,-999.0,84,-99.99,,,0.00,weatherlink.com 1.10,2013-09-07 04:32:00,
2013-09-07 00:47:00,53.0,49.0,30.05,East,83,2.0,-999.0,85,-99.99,,,0.00,weatherlink.com 1.10,2013-09-07 04:47:00,
2013-09-07 01:02:00,52.4,48.0,30.05,East,83,0.0,-999.0,86,-99.99,,,0.00,weatherlink.com 1.10,2013-09-07 05:02:00,
2013-09-07 01:17:00,51.6,48.0,30.04,East,83,0.0,-999.0,88,-99.99,,,0.00,weatherlink.com 1.10,2013-09-07 05:17:00,
2013-09-07 01:32:00,51.2,48.0,30.04,East,83,0.0,-999.0,89,-99.99,,,0.00,weatherlink.com 1.10,2013-09-07 05:32:00,
2013-09-07 01:47:00,50.8,48.0,30.04,East,83,0.0,-999.0,89,-99.99,,,0.00,weatherlink.com 1.10,2013-09-07 05:47:00,
2013-09-07 02:02:00,50.9,48.0,30.03,East,83,0.0,-999.0,90,-99.99,,,0.00,weatherlink.com 1.10,2013-09-07 06:02:00,
2013-09-07 02:17:00,51.2,48.0,30.03,East,83,0.0,-999.0,89,-99.99,,,0.00,weatherlink.com 1.10,2013-09-07 06:17:00,
2013-09-07 02:32:00,50.7,48.0,30.03,East,83,0.0,-999.0,89,-99.99,,,0.00,weatherlink.com 1.10,2013-09-07 06:32:00,
2013-09-07 02:47:00,50.3,48.0,30.04,East,83,0.0,-999.0,90,-99.99,,,0.00,weatherlink.com 1.10,2013-09-07 06:47:00,
2013-09-07 03:02:00,50.9,48.0,30.04,East,84,2.0,-999.0,90,-99.99,,,0.00,weatherlink.com 1.10,2013-09-07 07:02:00,
2013-09-07 03:17:00,51.8,48.0,30.04,South,181,0.0,-999.0,87,-99.99,,,0.00,weatherlink.com 1.10,2013-09-07 07:17:00,
2013-09-07 03:32:00,52.0,48.0,30.04,South,182,0.0,-999.0,86,-99.99,,,0.00,weatherlink.com 1.10,2013-09-07 07:32:00,
2013-09-07 03:47:00,50.8,47.0,30.04,South,182,0.0,-999.0,86,-99.99,,,0.00,weatherlink.com 1.10,2013-09-07 07:47:00,
2013-09-07 04:02:00,49.7,46.0,30.03,South,182,0.0,-999.0,88,-99.99,,,0.00,weatherlink.com 1.10,2013-09-07 08:02:00,
2013-09-07 04:17:00,49.1,46.0,30.03,South,181,0.0,-999.0,90,-99.99,,,0.00,weatherlink.com 1.10,2013-09-07 08:17:00,
2013-09-07 04:32:00,48.5,46.0,30.03,South,181,0.0,-999.0,91,-99.99,,,0.00,weatherlink.com 1.10,2013-09-07 08:32:00,
2013-09-07 04:47:00,47.9,46.0,30.03,South,182,0.0,-999.0,91,-99.99,,,0.00,weatherlink.com 1.10,2013-09-07 08:47:00,
2013-09-07 05:02:00,47.6,45.0,30.02,South,181,0.0,-999.0,92,-99.99,,,0.00,weatherlink.com 1.10,2013-09-07 09:02:00,
2013-09-07 05:17:00,47.2,45.0,30.03,South,182,0.0,-999.0,92,-99.99,,,0.00,weatherlink.com 1.10,2013-09-07 09:17:00,
2013-09-07 05:32:00,47.0,45.0,30.03,South,181,0.0,-999.0,93,-99.99,,,0.00,weatherlink.com 1.10,2013-09-07 09:32:00,
2013-09-07 05:47:00,46.9,45.0,30.03,South,181,0.0,-999.0,93,-99.99,,,0.00,weatherlink.com 1.10,2013-09-07 09:47:00,
2013-09-07 06:02:00,46.8,45.0,30.02,South,181,0.0,-999.0,94,-99.99,,,0.00,weatherlink.com 1.10,2013-09-07 10:02:00,
2013-09-07 06:17:00,46.8,45.0,30.02,South,182,0.0,-999.0,94,-99.99,,,0.00,weatherlink.com 1.10,2013-09-07 10:17:00,
2013-09-07 06:32:00,46.6,45.0,30.02,South,182,0.0,-999.0,94,-99.99,,,0.00,weatherlink.com 1.10,2013-09-07 10:32:00,
2013-09-07 06:47:00,46.7,45.0,30.02,South,181,0.0,-999.0,94,-99.99,,,0.00,weatherlink.com 1.10,2013-09-07 10:47:00,
2013-09-07 07:02:00,48.2,47.0,30.02,South,181,0.0,-999.0,96,-99.99,,,0.00,weatherlink.com 1.10,2013-09-07 11:02:00,
2013-09-07 07:17:00,48.9,48.0,30.02,South,181,0.0,-999.0,96,-99.99,,,0.00,weatherlink.com 1.10,2013-09-07 11:17:00,
2013-09-07 07:32:00,51.3,50.0,30.02,South,183,1.0,-999.0,96,-99.99,,,0.00,weatherlink.com 1.10,2013-09-07 11:32:00,
2013-09-07 07:47:00,53.7,52.0,30.01,South,187,3.0,-999.0,93,-99.99,,,0.00,weatherlink.com 1.10,2013-09-07 11:47:00,
2013-09-07 08:02:00,55.6,53.0,30.01,South,187,1.0,-999.0,90,-99.99,,,0.00,weatherlink.com 1.10,2013-09-07 12:02:00,
2013-09-07 08:17:00,57.2,53.0,30.00,SSW,194,3.0,-999.0,87,-99.99,,,0.00,weatherlink.com 1.10,2013-09-07 12:17:00,
2013-09-07 08:32:00,58.6,54.0,30.01,SSW,204,0.0,-999.0,85,-99.99,,,0.00,weatherlink.com 1.10,2013-09-07 12:32:00,
2013-09-07 08:47:00,59.5,54.0,30.01,SSW,200,3.0,-999.0,83,-99.99,,,0.00,weatherlink.com 1.10,2013-09-07 12:47:00,
2013-09-07 09:02:00,60.6,56.0,30.01,SSW,211,0.0,-999.0,84,-99.99,,,0.00,weatherlink.com 1.10,2013-09-07 13:02:00,
2013-09-07 09:17:00,61.7,56.0,30.01,SSW,192,2.0,-999.0,82,-99.99,,,0.00,weatherlink.com 1.10,2013-09-07 13:17:00,
2013-09-07 09:32:00,63.1,56.0,30.01,SW,215,4.0,-999.0,78,-99.99,,,0.00,weatherlink.com 1.10,2013-09-07 13:32:00,
2013-09-07 09:47:00,64.5,55.0,30.01,SSW,198,0.0,-999.0,71,-99.99,,,0.00,weatherlink.com 1.10,2013-09-07 13:47:00,
2013-09-07 10:02:00,66.1,54.0,30.01,SW,220,0.0,-999.0,65,-99.99,,,0.00,weatherlink.com 1.10,2013-09-07 14:02:00,
2013-09-07 10:17:00,67.5,53.0,30.00,SSW,210,0.0,-999.0,61,-99.99,,,0.00,weatherlink.com 1.10,2013-09-07 14:17:00,
2013-09-07 10:32:00,68.5,52.0,30.00,SSW,205,7.0,-999.0,57,-99.99,,,0.00,weatherlink.com 1.10,2013-09-07 14:32:00,
2013-09-07 10:47:00,69.3,52.0,30.00,South,188,10.0,-999.0,55,-99.99,,,0.00,weatherlink.com 1.10,2013-09-07 14:47:00,
2013-09-07 11:02:00,69.8,52.0,30.00,WSW,254,3.0,-999.0,54,-99.99,,,0.00,weatherlink.com 1.10,2013-09-07 15:02:00,
2013-09-07 11:17:00,70.5,53.0,30.00,SSE,164,6.0,-999.0,55,-99.99,,,0.00,weatherlink.com 1.10,2013-09-07 15:17:00,
2013-09-07 11:32:00,71.5,52.0,30.00,SW,236,3.0,-999.0,50,-99.99,,,0.00,weatherlink.com 1.10,2013-09-07 15:32:00,
2013-09-07 11:47:00,72.0,51.0,30.00,SW,220,2.0,-999.0,47,-99.99,,,0.00,weatherlink.com 1.10,2013-09-07 15:47:00,
2013-09-07 12:02:00,72.6,51.0,29.99,South,187,8.0,-999.0,47,-99.99,,,0.00,weatherlink.com 1.10,2013-09-07 16:02:00,
2013-09-07 12:17:00,72.8,50.0,29.98,SW,235,7.0,-999.0,45,-99.99,,,0.00,weatherlink.com 1.10,2013-09-07 16:17:00,
2013-09-07 12:32:00,73.0,51.0,29.97,SSW,205,7.0,-999.0,46,-99.99,,,0.00,weatherlink.com 1.10,2013-09-07 16:32:00,
2013-09-07 12:47:00,73.3,51.0,29.96,WSW,249,0.0,-999.0,46,-99.99,,,0.00,weatherlink.com 1.10,2013-09-07 16:47:00,
2013-09-07 13:02:00,73.8,50.0,29.95,WSW,256,10.0,-999.0,43,-99.99,,,0.00,weatherlink.com 1.10,2013-09-07 17:02:00,
2013-09-07 13:17:00,74.7,52.0,29.94,WSW,240,5.0,-999.0,45,-99.99,,,0.00,weatherlink.com 1.10,2013-09-07 17:17:00,
2013-09-07 13:32:00,76.1,51.0,29.94,SW,227,7.0,-999.0,41,-99.99,,,0.00,weatherlink.com 1.10,2013-09-07 17:32:00,
2013-09-07 13:47:00,75.9,50.0,29.93,SSW,198,6.0,-999.0,40,-99.99,,,0.00,weatherlink.com 1.10,2013-09-07 17:47:00,
2013-09-07 14:02:00,75.9,50.0,29.92,SSW,200,0.0,-999.0,41,-99.99,,,0.00,weatherlink.com 1.10,2013-09-07 18:02:00,
2013-09-07 14:17:00,76.2,49.0,29.90,SW,221,0.0,-999.0,38,-99.99,,,0.00,weatherlink.com 1.10,2013-09-07 18:17:00,
2013-09-07 14:32:00,76.8,52.0,29.90,SSW,203,0.0,-999.0,42,-99.99,,,0.00,weatherlink.com 1.10,2013-09-07 18:32:00,
2013-09-07 14:47:00,76.7,48.0,29.89,SSW,200,4.0,-999.0,37,-99.99,,,0.00,weatherlink.com 1.10,2013-09-07 18:47:00,
2013-09-07 15:02:00,76.7,50.0,29.89,SSW,205,5.0,-999.0,39,-99.99,,,0.00,weatherlink.com 1.10,2013-09-07 19:02:00,
2013-09-07 15:17:00,77.0,50.0,29.88,SSW,207,4.0,-999.0,39,-99.99,,,0.00,weatherlink.com 1.10,2013-09-07 19:17:00,
2013-09-07 15:32:00,77.1,52.0,29.88,SSW,205,5.0,-999.0,42,-99.99,,,0.00,weatherlink.com 1.10,2013-09-07 19:32:00,
2013-09-07 15:47:00,77.2,52.0,29.88,SSW,200,0.0,-999.0,41,-99.99,,,0.00,weatherlink.com 1.10,2013-09-07 19:47:00,
2013-09-07 16:02:00,77.3,50.0,29.87,SSW,211,4.0,-999.0,39,-99.99,,,0.00,weatherlink.com 1.10,2013-09-07 20:02:00,
2013-09-07 16:17:00,77.6,49.0,29.87,SW,224,5.0,-999.0,37,-99.99,,,0.00,weatherlink.com 1.10,2013-09-07 20:17:00,
2013-09-07 16:32:00,77.5,50.0,29.86,SSW,209,0.0,-999.0,38,-99.99,,,0.00,weatherlink.com 1.10,2013-09-07 20:32:00,
2013-09-07 16:47:00,77.3,50.0,29.87,South,185,5.0,-999.0,39,-99.99,,,0.00,weatherlink.com 1.10,2013-09-07 20:47:00,
2013-09-07 17:02:00,76.7,58.0,29.86,SSW,192,0.0,-999.0,53,-99.99,,,0.00,weatherlink.com 1.10,2013-09-07 21:02:00,
2013-09-07 17:17:00,75.5,58.0,29.86,South,186,0.0,-999.0,54,-99.99,,,0.00,weatherlink.com 1.10,2013-09-07 21:17:00,
2013-09-07 17:32:00,75.3,58.0,29.86,SSW,212,0.0,-999.0,56,-99.99,,,0.00,weatherlink.com 1.10,2013-09-07 21:32:00,
2013-09-07 17:47:00,74.8,58.0,29.86,SSW,195,0.0,-999.0,57,-99.99,,,0.00,weatherlink.com 1.10,2013-09-07 21:47:00,
2013-09-07 18:02:00,73.9,59.0,29.85,South,191,0.0,-999.0,59,-99.99,,,0.00,weatherlink.com 1.10,2013-09-07 22:02:00,
2013-09-07 18:17:00,72.1,58.0,29.85,South,191,0.0,-999.0,62,-99.99,,,0.00,weatherlink.com 1.10,2013-09-07 22:17:00,
2013-09-07 18:32:00,71.1,59.0,29.85,South,191,0.0,-999.0,65,-99.99,,,0.00,weatherlink.com 1.10,2013-09-07 22:32:00,
2013-09-07 18:47:00,70.2,59.0,29.85,South,191,0.0,-999.0,67,-99.99,,,0.00,weatherlink.com 1.10,2013-09-07 22:47:00,
2013-09-07 19:02:00,69.6,58.0,29.85,SSE,161,0.0,-999.0,67,-99.99,,,0.00,weatherlink.com 1.10,2013-09-07 23:02:00,
2013-09-07 19:17:00,69.0,58.0,29.85,SSE,161,1.0,-999.0,69,-99.99,,,0.00,weatherlink.com 1.10,2013-09-07 23:17:00,
2013-09-07 19:32:00,68.4,58.0,29.85,SSE,160,0.0,-999.0,70,-99.99,,,0.00,weatherlink.com 1.10,2013-09-07 23:32:00,
2013-09-07 19:47:00,67.8,58.0,29.85,SSE,161,0.0,-999.0,70,-99.99,,,0.00,weatherlink.com 1.10,2013-09-07 23:47:00,
2013-09-07 20:02:00,67.4,58.0,29.84,SSE,161,0.0,-999.0,71,-99.99,,,0.00,weatherlink.com 1.10,2013-09-08 00:02:00,
2013-09-07 20:17:00,67.1,57.0,29.84,SSE,161,0.0,-999.0,71,-99.99,,,0.00,weatherlink.com 1.10,2013-09-08 00:17:00,
2013-09-07 20:32:00,66.8,57.0,29.84,SSE,161,0.0,-999.0,71,-99.99,,,0.00,weatherlink.com 1.10,2013-09-08 00:32:00,
2013-09-07 20:47:00,66.4,57.0,29.84,SSE,161,0.0,-999.0,72,-99.99,,,0.00,weatherlink.com 1.10,2013-09-08 00:47:00,
2013-09-07 21:02:00,66.0,57.0,29.84,SSE,161,0.0,-999.0,73,-99.99,,,0.00,weatherlink.com 1.10,2013-09-08 01:02:00,
2013-09-07 21:17:00,65.6,57.0,29.85,SSE,161,0.0,-999.0,74,-99.99,,,0.00,weatherlink.com 1.10,2013-09-08 01:17:00,
2013-09-07 21:32:00,65.7,57.0,29.84,SSE,167,0.0,-999.0,74,-99.99,,,0.00,weatherlink.com 1.10,2013-09-08 01:32:00,
2013-09-07 21:47:00,65.8,58.0,29.84,South,189,1.0,-999.0,76,-99.99,,,0.00,weatherlink.com 1.10,2013-09-08 01:47:00,
2013-09-07 22:02:00,65.6,58.0,29.84,South,189,0.0,-999.0,76,-99.99,,,0.00,weatherlink.com 1.10,2013-09-08 02:02:00,
2013-09-07 22:17:00,65.3,58.0,29.84,South,189,0.0,-999.0,77,-99.99,,,0.00,weatherlink.com 1.10,2013-09-08 02:17:00,
2013-09-07 22:32:00,65.0,58.0,29.84,South,189,0.0,-999.0,78,-99.99,,,0.00,weatherlink.com 1.10,2013-09-08 02:32:00,
2013-09-07 22:47:00,64.8,58.0,29.84,SSW,208,1.0,-999.0,79,-99.99,,,0.00,weatherlink.com 1.10,2013-09-08 02:47:00,
2013-09-07 23:02:00,64.6,58.0,29.84,SSW,197,0.0,-999.0,80,-99.99,,,0.00,weatherlink.com 1.10,2013-09-08 03:02:00,
2013-09-07 23:17:00,64.3,58.0,29.83,South,190,2.0,-999.0,81,-99.99,,,0.00,weatherlink.com 1.10,2013-09-08 03:17:00,
2013-09-07 23:32:00,64.2,59.0,29.83,SW,214,1.0,-999.0,82,-99.99,,,0.00,weatherlink.com 1.10,2013-09-08 03:32:00,
2013-09-07 23:47:00,64.2,59.0,29.83,SSW,196,2.0,-999.0,82,-99.99,,,0.00,weatherlink.com 1.10,2013-09-08 03:47:00,